Wind_Speed
49 51 58 64 71 72 70 69 72 72 73 74 72 72 76 81 78 81 89 95 97 97 92 88 83 84 87 83 77 80 80 81 79 78 76 78 80 66 66 67 72 76 76 69
45 55 57 57 57 55 56 56 56 60 61 59 60 60 65 69 70 69 71 75 79 81 79 80 81 80 88 88 82 80 80 81 83 83 82 83 84 79 64 67 69 73 72 68
44 43 44 44 43 46 48 49 51 51 53 55 57 57 58 61 60 60 62 66 70 72 75 76 81 86 85 85 82 82 84 82 81 83 83 85 86 80 60 68 69 78 71 72
29 31 33 34 38 40 40 44 45 44 45 45 46 47 49 52 54 55 58 62 63 65 67 67 70 77 84 82 81 84 85 84 82 83 83 85 85 80 63 67 69 86 81 77
24 25 27 30 32 35 36 37 37 38 38 40 41 43 44 45 47 48 49 50 54 56 59 59 60 67 73 74 77 82 86 87 85 83 83 85 79 77 65 65 70 81 83 86
15 17 20 22 24 28 30 33 36 37 37 38 40 42 43 45 48 49 49 48 48 49 53 57 59 61 67 70 74 78 82 84 83 84 83 81 76 70 61 65 69 71 75 76
9 12 7 9 9 14 17 18 22 26 27 29 31 35 37 41 44 46 46 49 50 49 48 51 54 54 59 64 69 70 72 76 77 78 77 78 67 63 59 62 60 67 71 72
13 11 11 12 12 13 14 15 16 18 18 19 20 21 25 28 33 38 39 40 45 51 52 51 52 53 54 57 61 65 66 69 71 72 72 67 63 59 58 60 60 68 71 72
20 21 19 18 17 16 15 16 16 15 14 13 12 13 13 16 22 25 30 35 39 44 47 50 52 52 48 49 54 59 61 60 63 64 65 58 58 57 58 59 60 70 76 75
21 17 13 12 14 12 11 10 11 11 9 7 6 5 7 8 8 13 20 27 32 35 39 46 49 52 46 43 49 53 54 56 55 58 52 51 53 53 59 59 65 69 75 78
25 23 22 17 18 23 19 21 19 17 14 9 9 8 3 2 4 9 17 21 26 30 36 42 49 44 49 43 42 41 47 50 51 48 48 51 52 54 61 65 67 70 75 77
36 35 33 31 30 33 34 30 26 21 16 14 13 10 8 4 4 11 16 22 26 30 35 38 45 43 43 46 41 42 45 47 44 45 51 53 54 57 65 74 77 81 79 81
47 48 47 49 46 43 43 41 32 27 24 21 16 14 11 8 2 9 15 17 25 30 34 37 41 43 40 48 44 42 43 45 51 56 59 59 61 65 66 81 83 84 89 91
53 54 54 54 55 57 57 55 51 43 33 29 26 24 23 16 13 2 9 12 22 32 34 37 40 43 43 45 49 46 49 49 52 54 62 62 65 66 72 80 92 94 96 98
52 52 52 52 51 50 50 49 49 51 50 43 36 30 25 22 16 10 6 4 14 23 24 25 34 37 36 40 48 48 51 50 51 52 57 63 65 68 76 85 94 100 102 108
46 47 47 46 45 47 47 47 47 46 49 49 47 45 37 27 19 16 9 7 6 10 24 22 28 31 32 41 44 45 51 55 55 58 60 63 68 74 77 90 100 105 110 115
39 40 39 39 39 39 39 40 40 41 41 44 43 43 42 39 31 22 14 10 10 12 15 26 33 30 36 34 38 43 50 52 55 59 60 64 70 76 85 88 98 105 113 121
31 31 30 31 31 31 32 31 31 31 32 32 33 32 31 30 28 25 20 17 14 15 16 13 18 33 40 39 44 46 50 48 53 58 64 65 70 76 81 90 97 108 118 124
23 23 23 23 23 22 23 23 23 23 22 22 21 20 18 19 19 18 15 13 8 7 9 9 12 19 24 34 44 52 54 55 59 64 68 73 77 83 90 98 103 111 119 123
19 19 20 20 19 19 18 17 16 15 14 13 14 13 10 9 10 10 9 7 6 8 8 7 6 7 13 19 26 32 42 53 61 62 64 70 74 83 89 101 113 121 125 128
16 16 16 16 16 17 18 18 16 17 17 15 11 8 6 4 3 4 2 3 5 7 11 12 16 20 24 26 31 33 37 38 41 49 61 68 72 82 90 97 105 110 116 125
14 13 14 16 15 16 16 17 18 20 20 19 18 15 14 12 11 12 13 14 12 15 18 20 21 20 25 27 30 34 39 45 51 57 63 72 81 85 90 94 95 95 104 94
19 17 16 16 16 18 19 18 19 18 19 20 21 22 21 22 21 21 22 22 24 25 26 27 27 32 33 34 39 43 38 43 49 53 60 64 73 76 81 83 81 84 84 84
27 27 25 23 22 20 19 21 20 21 20 18 18 19 21 23 24 27 29 29 31 33 34 35 35 33 35 35 34 37 41 48 55 56 67 71 78 82 89 87 86 82 77 72
23 28 30 30 30 29 25 22 22 22 20 22 20 20 21 22 25 28 29 29 29 29 29 31 32 32 33 34 37 42 48 56 62 65 73 78 85 87 91 91 87 79 68 63
23 29 33 33 30 36 35 33 29 26 27 27 25 25 25 25 24 23 23 25 26 26 29 31 34 36 37 41 45 50 55 63 70 73 78 83 88 90 92 87 87 82 61 62
Wind_Direction
251 251 248 246 247 249 252 255 255 254 257 258 258 256 255 256 256 253 253 255 255 256 255 252 251 247 245 245 245 246 245 244 246 249 254 257 260 253 253 244 231 236 237 231
242 245 247 253 258 259 260 259 259 259 257 258 257 253 250 250 251 249 246 248 250 250 250 251 250 249 245 245 247 247 246 247 246 247 248 253 257 260 248 243 235 237 233 229
243 248 255 258 263 265 260 260 260 258 256 255 255 252 249 250 250 248 245 243 246 245 244 242 245 246 246 245 245 245 246 247 247 247 249 251 254 259 248 239 237 232 237 237
256 259 260 260 263 265 266 263 264 260 257 257 254 251 251 250 250 245 239 241 241 242 243 244 242 243 242 244 244 244 246 247 246 248 248 249 252 255 249 241 232 230 234 238
260 261 260 259 261 262 265 268 268 267 264 262 261 259 256 253 250 248 245 242 242 240 239 241 241 238 240 240 242 244 245 246 245 246 249 249 252 253 249 239 234 232 232 235
250 254 255 260 261 266 269 271 273 272 270 268 266 263 260 256 251 246 241 237 235 233 232 231 233 236 236 236 237 240 242 245 244 244 246 248 248 249 240 237 235 228 228 231
222 233 255 275 278 279 274 274 276 279 279 275 270 268 260 259 256 251 245 238 234 231 225 225 228 231 234 234 235 235 237 239 241 242 244 247 246 243 230 233 229 224 228 235
52 44 37 27 2 350 338 322 308 302 296 287 281 266 258 252 248 247 243 236 230 224 222 222 223 225 228 231 230 229 231 234 238 241 243 244 242 233 232 230 227 225 229 236
50 39 23 11 2 355 343 334 320 318 311 312 308 291 267 250 243 237 233 226 219 214 215 213 215 221 222 225 226 226 230 231 233 235 238 238 235 227 231 232 231 230 229 232
51 38 33 43 46 39 22 12 349 334 338 346 346 323 304 278 245 217 215 211 209 206 204 206 205 212 210 217 225 226 229 230 231 234 236 234 225 232 233 235 226 225 232 234
68 66 66 66 73 71 66 56 42 37 32 31 42 37 20 115 204 193 191 195 196 190 193 195 194 198 204 208 218 223 226 229 231 231 229 227 224 231 228 223 226 228 234 240
71 72 68 68 67 70 72 65 57 52 44 59 61 43 56 86 178 175 181 176 180 186 184 183 190 195 202 199 212 217 228 228 228 228 228 224 230 233 230 227 228 231 233 239
77 74 72 71 69 69 69 71 67 55 44 50 54 45 34 42 135 165 192 186 186 168 178 185 189 196 201 201 205 208 215 226 225 221 230 230 235 235 234 229 230 235 238 243
76 73 72 71 71 69 67 65 65 65 59 53 49 38 40 36 24 238 200 200 184 179 182 186 184 194 199 199 203 207 212 216 226 230 233 234 237 239 237 233 232 236 238 241
73 72 71 71 69 68 68 67 65 64 63 63 60 56 44 35 30 18 316 262 210 201 198 188 202 205 199 202 210 210 218 226 230 232 237 241 243 242 238 233 234 236 239 241
67 64 65 66 66 64 60 58 57 54 52 56 60 59 58 51 41 26 7 338 277 248 228 221 210 210 209 215 214 224 224 227 230 235 240 245 248 248 246 239 238 241 242 243
64 61 60 58 54 54 55 53 53 53 50 49 47 48 53 58 57 50 33 3 344 275 270 238 219 218 220 226 227 234 239 238 240 242 243 245 249 250 249 248 246 247 248 248
59 62 61 60 57 55 51 52 54 55 56 52 50 48 48 53 51 49 39 29 8 349 325 295 274 250 246 242 247 245 238 240 248 252 252 254 254 255 257 259 257 252 251 250
44 46 47 52 55 53 53 48 49 54 56 59 66 66 61 49 48 57 52 45 50 24 355 321 309 278 274 263 265 260 250 253 255 256 260 258 256 260 261 261 261 261 258 256
19 20 19 20 20 17 21 25 28 29 42 43 41 55 70 65 62 50 56 50 7 344 333 323 305 290 274 271 274 277 274 273 274 275 277 275 271 271 270 268 268 269 267 266
354 355 353 352 352 351 350 349 348 348 349 354 360 356 1 4 2 340 315 285 269 276 263 265 272 269 271 272 270 268 266 262 269 275 271 270 271 272 274 276 276 271 275 274
326 330 332 335 332 331 331 327 323 323 321 319 317 316 313 306 296 284 276 274 275 246 246 253 263 271 266 276 282 279 279 286 278 278 280 274 274 277 277 276 279 280 277 276
312 314 316 320 322 324 324 323 317 312 309 307 307 303 300 298 294 289 286 288 291 287 287 284 282 270 271 277 278 266 276 290 291 302 308 305 305 303 302 302 300 296 298 294
311 314 313 314 314 315 315 317 317 315 311 306 302 298 294 291 289 289 291 291 287 283 281 279 276 272 270 273 278 292 302 301 319 318 319 314 314 316 320 318 312 309 306 301
301 304 304 309 309 308 310 310 310 309 307 311 301 295 291 287 285 282 281 280 280 279 280 279 278 280 287 289 303 310 317 324 328 327 328 328 328 326 324 323 318 316 314 305
296 284 287 295 302 302 305 304 306 310 310 309 304 299 299 302 298 298 299 296 296 298 302 307 311 313 311 315 318 322 325 329 331 331 335 330 329 328 325 325 324 320 321 313
Height
10506 10509 10510 10510 10510 10514 10523 10529 10530 10535 10541 10549 10558 10566 10563 10564 10573 10584 10593 10598 10603 10611 10620 10632 10643 10655 10660 10668 10676 10680 10690 10694 10698 10702 10708 10709 10711 10723 10728 10731 10735 10742 10749 10756
10495 10495 10498 10504 10508 10514 10516 10516 10519 10521 10527 10533 10537 10544 10543 10544 10550 10562 10570 10577 10581 10590 10603 10610 10624 10637 10641 10650 10661 10668 10673 10678 10686 10691 10694 10697 10699 10705 10717 10719 10724 10731 10739 10746
10486 10492 10494 10499 10504 10503 10500 10504 10507 10508 10512 10516 10520 10525 10528 10530 10537 10545 10551 10558 10564 10571 10578 10588 10598 10613 10623 10633 10645 10653 10658 10666 10672 10677 10681 10685 10687 10693 10707 10707 10714 10720 10728 10733
10485 10487 10490 10493 10494 10494 10494 10491 10494 10497 10500 10503 10507 10512 10514 10516 10519 10526 10534 10539 10546 10552 10561 10571 10583 10590 10601 10615 10627 10635 10641 10649 10657 10661 10666 10669 10674 10681 10696 10698 10703 10706 10710 10720
10480 10482 10483 10485 10486 10485 10487 10486 10486 10489 10493 10495 10497 10500 10504 10508 10510 10514 10519 10525 10531 10538 10546 10555 10565 10575 10582 10595 10608 10617 10621 10627 10637 10645 10651 10656 10665 10673 10681 10685 10687 10691 10697 10709
10478 10479 10481 10483 10485 10483 10483 10483 10481 10481 10483 10487 10489 10489 10492 10491 10493 10497 10504 10510 10516 10524 10532 10538 10545 10556 10568 10578 10587 10595 10604 10611 10622 10629 10636 10643 10654 10661 10669 10670 10676 10682 10689 10697
10478 10479 10480 10482 10482 10481 10479 10478 10475 10474 10475 10477 10478 10477 10478 10477 10480 10484 10491 10498 10506 10514 10521 10527 10533 10541 10551 10561 10570 10583 10587 10595 10604 10612 10621 10629 10641 10647 10653 10657 10664 10673 10681 10687
10477 10477 10478 10478 10478 10477 10476 10475 10472 10469 10469 10468 10469 10470 10469 10470 10470 10473 10479 10485 10493 10502 10510 10517 10522 10529 10539 10548 10559 10566 10573 10582 10591 10599 10607 10618 10625 10637 10642 10647 10654 10662 10669 10673
10479 10478 10479 10478 10477 10476 10476 10474 10471 10468 10467 10467 10465 10464 10465 10466 10467 10468 10472 10477 10483 10490 10500 10507 10515 10522 10534 10543 10549 10555 10563 10573 10579 10587 10595 10607 10615 10624 10631 10635 10643 10652 10655 10655
10485 10486 10486 10484 10484 10483 10481 10477 10475 10471 10470 10468 10466 10465 10465 10465 10466 10467 10470 10474 10480 10487 10496 10501 10510 10515 10533 10539 10542 10549 10558 10566 10572 10579 10591 10599 10608 10614 10620 10626 10631 10635 10638 10639
10492 10491 10490 10489 10488 10486 10482 10479 10477 10473 10474 10471 10470 10471 10469 10470 10469 10470 10471 10474 10479 10487 10493 10501 10508 10512 10526 10536 10540 10548 10552 10557 10566 10575 10584 10593 10602 10604 10610 10615 10619 10624 10624 10626
10497 10497 10495 10493 10490 10487 10487 10483 10481 10480 10479 10477 10476 10476 10476 10475 10476 10477 10477 10480 10483 10487 10494 10504 10510 10514 10518 10531 10537 10545 10549 10557 10565 10573 10577 10586 10592 10599 10603 10606 10606 10607 10607 10607
10507 10505 10502 10500 10498 10496 10494 10492 10490 10487 10485 10483 10484 10484 10483 10484 10485 10484 10484 10485 10489 10495 10498 10503 10510 10517 10520 10532 10538 10543 10546 10552 10557 10563 10568 10577 10580 10583 10587 10592 10593 10593 10595 10595
10515 10512 10510 10509 10507 10504 10501 10501 10499 10496 10493 10490 10489 10488 10490 10492 10494 10495 10495 10495 10497 10500 10503 10507 10513 10515 10521 10531 10533 10541 10544 10546 10551 10560 10564 10568 10570 10572 10575 10578 10580 10578 10578 10575
10524 10522 10519 10518 10517 10515 10513 10511 10509 10506 10503 10500 10496 10494 10495 10495 10499 10502 10502 10504 10506 10508 10510 10514 10517 10521 10528 10531 10533 10538 10541 10547 10552 10555 10556 10561 10566 10565 10564 10564 10563 10558 10557 10554
10532 10530 10529 10527 10525 10523 10520 10519 10517 10513 10509 10508 10505 10503 10503 10503 10504 10505 10508 10511 10513 10516 10518 10520 10523 10526 10529 10531 10535 10539 10541 10540 10544 10548 10552 10553 10554 10555 10554 10551 10546 10541 10537 10533
10543 10540 10538 10535 10533 10531 10530 10527 10525 10523 10520 10517 10514 10510 10510 10512 10512 10513 10514 10515 10517 10520 10522 10524 10525 10527 10530 10533 10536 10538 10540 10543 10543 10544 10544 10544 10541 10539 10534 10531 10529 10523 10516 10509
10552 10550 10548 10545 10542 10540 10537 10535 10534 10532 10531 10530 10527 10525 10523 10521 10520 10520 10520 10521 10521 10521 10523 10525 10528 10530 10530 10530 10533 10535 10536 10538 10539 10538 10537 10534 10528 10524 10521 10517 10508 10497 10486 10478
10564 10561 10558 10555 10553 10551 10546 10543 10541 10539 10537 10537 10537 10535 10533 10531 10529 10528 10527 10526 10526 10525 10524 10524 10524 10525 10527 10528 10530 10530 10530 10532 10530 10527 10524 10519 10514 10507 10499 10490 10477 10468 10460 10450
10569 10566 10564 10562 10560 10558 10555 10552 10549 10546 10544 10540 10537 10537 10537 10537 10535 10533 10531 10528 10527 10526 10524 10523 10523 10523 10521 10521 10520 10519 10520 10519 10516 10513 10509 10503 10497 10486 10473 10461 10450 10439 10429 10418
10570 10568 10566 10564 10561 10560 10557 10555 10553 10551 10549 10546 10543 10540 10537 10534 10533 10532 10531 10529 10527 10526 10525 10523 10523 10520 10520 10518 10516 10515 10513 10508 10504 10499 10489 10481 10469 10459 10449 10436 10421 10414 10393 10375
10567 10566 10563 10562 10560 10558 10556 10553 10551 10548 10546 10544 10543 10541 10538 10535 10532 10529 10527 10526 10525 10524 10523 10521 10519 10515 10513 10509 10508 10505 10502 10498 10491 10483 10474 10464 10448 10437 10426 10414 10395 10367 10355 10339
10565 10562 10560 10558 10557 10555 10553 10550 10548 10546 10543 10540 10537 10535 10534 10532 10529 10526 10524 10521 10517 10515 10512 10510 10508 10506 10504 10502 10499 10497 10493 10485 10476 10464 10451 10439 10423 10407 10391 10375 10356 10333 10313 10297
10560 10559 10557 10554 10552 10551 10549 10546 10544 10541 10539 10535 10533 10530 10528 10526 10523 10519 10516 10513 10511 10510 10507 10504 10502 10499 10498 10495 10489 10482 10475 10466 10454 10443 10430 10413 10396 10378 10354 10332 10313 10295 10280 10261
10559 10554 10552 10551 10549 10545 10544 10542 10539 10537 10535 10532 10529 10525 10523 10520 10518 10515 10513 10511 10508 10504 10501 10497 10493 10489 10484 10478 10472 10464 10455 10445 10432 10421 10404 10385 10368 10350 10331 10307 10284 10268 10251 10235
10556 10550 10545 10543 10544 10540 10538 10536 10534 10532 10529 10526 10524 10521 10518 10515 10511 10508 10505 10501 10497 10493 10488 10483 10477 10472 10467 10461 10454 10445 10436 10426 10411 10396 10383 10367 10348 10329 10307 10290 10265 10232 10233 10212